Flag for Germany Weather past 2 weeks in Aalen, Baden-Württemberg, Germany

Now
43 °F

Fog.


Feels Like: 43 °F
Forecast: 36 / 60 °F
Wind: 2 mph from Northwest

Location: Stoetten

Current Time: Sep 23, 2014 at 10:53:23 AM

Latest Report: Sep 23, 2014 at 10:00 AM


Visibility: 3 mi

Pressure: 30.24 "Hg

Humidity: 94%

Dew point: 41 °F

Location of AalenLocation

Historic Weather in Aalen — Graph

°F

Aalen temperature yesterday

Maximum temperature yesterday: 50 °F (at 12:00 AM)
Minimum temperature yesterday: 41 °F (at 8:00 PM)
Average temperature yesterday: 46 °F

Past Weeks' High & Low Weather Summary

 TemperatureHumidityPressure
High71 °F (Sep 8, 3:00 PM)100% (Sep 11, 9:00 AM)30.23 "Hg (Sep 11, 9:00 AM)
Low41 °F (Sep 23, 2:00 AM)60% (Sep 10, 5:00 PM)29.84 "Hg (Sep 18, 4:00 PM)
Average56 °F90%30.01 "Hg
* Reported Sep 8 9:00 AM — Sep 23 9:00 AM, Aalen, Weather by CustomWeather, © 2014

Note: Actual official high and low records may vary slightly from our data, if they occured in-between our weather recording intervals... More about our weather records

Advertising

Aalen weather history for previous 24 hours

 ConditionsComfort  
Time TempWeatherWind HumidityBarometerVisibility
9:00 AM
Sep 23
43 °FFog.2 mph96%30.23 "Hg2 mi
8:00 AM42 °FLow clouds.3 mph97%30.22 "Hg6 mi
7:00 AM42 °FLow clouds.3 mph95%30.21 "Hg7 mi
6:00 AM41 °FLow clouds.5 mph95%30.20 "Hg10 mi
5:00 AM42 °FOvercast.5 mph95%30.19 "Hg6 mi
4:00 AM41 °FFog.5 mph97%30.19 "Hg3 mi
3:00 AM41 °FLow clouds.5 mph96%30.19 "Hg5 mi
2:00 AM41 °FLow clouds.5 mph98%30.19 "Hg2 mi
1:00 AM41 °FLow clouds.5 mph99%30.20 "Hg1 mi
12:00 AM41 °FLow clouds.5 mph99%30.21 "Hg1 mi
11:00 PM
Sep 22
42 °FLow clouds.5 mph99%30.21 "Hg2 mi
10:00 PM42 °FLow clouds.3 mph100%30.19 "Hg0 mi
9:00 PM41 °FFog.7 mph100%30.19 "Hg0 mi
8:00 PM41 °FFog.7 mph100%30.17 "Hg0 mi
7:00 PM42 °FThunderstorms. Partly sunny.8 mph96%30.13 "Hg6 mi
6:00 PM42 °FThundershowers. Low clouds.9 mph93%30.14 "Hg2 mi
5:00 PM42 °FRain. Low clouds.9 mph98%30.11 "Hg2 mi
4:00 PM49 °FLow clouds.8 mph85%30.04 "Hg6 mi
3:00 PM45 °FLight rain. Low clouds.8 mph89%30.09 "Hg3 mi
2:00 PM48 °FLow clouds.6 mph87%30.08 "Hg4 mi
1:00 PM47 °FLight rain. Low clouds.8 mph92%30.10 "Hg3 mi
12:00 PM46 °FLow clouds.5 mph95%30.12 "Hg3 mi
11:00 AM46 °FFog.6 mph99%30.13 "Hg2 mi
10:00 AM45 °FFog.7 mph99%30.13 "Hg0 mi
Weather by CustomWeather, © 2014

See weather overviewHow to use our weather pages